Home   Weather   Tromsø   Past weeks
Flag for Norway

Past Weather in Tromsø, Norway — Yesterday and Last 2 Weeks

Now
42 °F

Sunny.


Feels Like: 36 °F
Forecast: 47 / 36 °F
Wind: 10 mph from Northeast

Location: Tromso / Langnes

Current Time: May 22, 2019 at 10:56:25 am

Latest Report: May 22, 2019 at 10:00 am


Visibility: 19 mi

Pressure: 30.19 "Hg

Humidity: 61%

Dew Point: 30 °F

Location of TromsøLocation

Past Weather in Tromsø — Graph

°F

Tromsø Temperature Yesterday

Maximum temperature yesterday: 51 °F (at 1:00 pm)
Minimum temperature yesterday: 41 °F (at 2:00 am)
Average temperature yesterday: 46 °F

High & Low Weather Summary for the Past Weeks

 TemperatureHumidityPressure
High57 °F (May 20, 2:00 pm)94% (May 18, 4:00 am)30.43 "Hg (May 18, 4:00 am)
Low34 °F (May 9, 3:00 am)36% (May 10, 4:00 pm)29.50 "Hg (May 8, 2:00 pm)
Average43 °F73%30.09 "Hg
* Reported May 7 9:00 am — May 22 9:00 am, Tromsø. Weather by CustomWeather, © 2019

Note: Actual official high and low records may vary slightly from our data, if they occured in-between our weather recording intervals... More about our weather records

Advertising

Tromsø Weather History for the Previous 24 Hours

Scroll right to see more
 ConditionsComfort  
Time TempWeatherWind HumidityBarometerVisibility
9:00 am
Wed, May 22
42 °FSunny.9 mph66%30.18 "Hg25 mi
8:00 am41 °FOvercast.9 mph67%30.17 "Hg22 mi
7:00 am41 °FOvercast.8 mph72%30.17 "Hg22 mi
6:00 am41 °FOvercast.7 mph75%30.16 "Hg22 mi
5:00 am41 °FOvercast.6 mph76%30.15 "Hg25 mi
4:00 am41 °FOvercast.8 mph80%30.15 "Hg22 mi
3:00 am40 °FScattered clouds.7 mph80%30.15 "Hg22 mi
2:00 am40 °FScattered clouds.7 mph78%30.14 "Hg22 mi
1:00 am40 °FPartly sunny.9 mph82%30.14 "Hg22 mi
12:00 am40 °FSunny.9 mph81%30.14 "Hg22 mi
11:00 pm
Tue, May 21
42 °FOvercast.10 mph80%30.14 "Hg19 mi
10:00 pm43 °FScattered clouds.10 mph78%30.14 "Hg19 mi
9:00 pm44 °FSunny.10 mph75%30.14 "Hg19 mi
8:00 pm46 °FSunny.12 mph71%30.13 "Hg19 mi
7:00 pm47 °FSunny.12 mph70%30.12 "Hg17 mi
6:00 pm49 °FSunny.10 mph66%30.12 "Hg22 mi
5:00 pm50 °FSunny.10 mph62%30.12 "Hg22 mi
4:00 pm51 °FSunny.10 mph64%30.13 "Hg22 mi
3:00 pm51 °FSunny.10 mph62%30.13 "Hg16 mi
2:00 pm51 °FSunny.10 mph61%30.12 "Hg19 mi
1:00 pm51 °FSunny.9 mph62%30.12 "Hg19 mi
12:00 pm51 °FSunny.10 mph63%30.13 "Hg19 mi
11:00 am50 °FSunny.10 mph63%30.13 "Hg19 mi
10:00 am49 °FSunny.6 mph63%30.12 "Hg17 mi
Weather by CustomWeather, © 2019

See weather overview